EW0610 Weather Reports


Display with metric or nautical units.
time (UTC)temp
F
wind
direction
speed
MPH
gust
MPH
rain 1hr
in
rain 24hr
in
rain mn
in
humidity
%
barometer
mb
20260831181932 98 193 4.0 11.0 0.00 0.00 0.00 36 1015.8
20260831181436 98 158 4.0 11.0 0.00 0.00 0.00 36 1015.9
20260831180939 98 196 6.0 11.0 0.00 0.00 0.00 36 1016.1
20260831180431 98 153 8.0 17.0 0.00 0.00 0.00 36 1016.2
20260831175941 97 158 5.0 17.0 0.00 0.00 0.00 37 1016.2
20260831175503 97 106 10.0 16.0 0.00 0.00 0.00 37 1016.2
20260831174936 97 191 3.0 11.0 0.00 0.00 0.00 38 1016.4
20260831174443 97 116 5.0 13.0 0.00 0.00 0.00 37 1016.5
20260831173930 97 153 5.0 13.0 0.00 0.00 0.00 38 1016.6
20260831173439 97 189 9.0 13.0 0.00 0.00 0.00 37 1016.6
20260831172943 97 143 5.0 12.0 0.00 0.00 0.00 37 1016.6
20260831172425 97 210 9.0 11.0 0.00 0.00 0.00 37 1016.7
20260831171939 97 92 5.0 9.0 0.00 0.00 0.00 37 1016.7
20260831171443 97 164 2.0 6.0 0.00 0.00 0.00 38 1016.9
20260831170930 97 172 3.0 10.0 0.00 0.00 0.00 38 1016.9
20260831170438 97 165 5.0 10.0 0.00 0.00 0.00 38 1016.9
20260831165931 96 178 3.0 6.0 0.00 0.00 0.00 40 1016.9
20260831165435 96 268 3.0 11.0 0.00 0.00 0.00 40 1016.9
20260831164943 95 179 3.0 11.0 0.00 0.00 0.00 40 1016.9
20260831164449 95 191 2.0 9.0 0.00 0.00 0.00 41 1016.9
20260831163927 94 196 3.0 9.0 0.00 0.00 0.00 41 1017.0
20260831163435 94 164 6.0 8.0 0.00 0.00 0.00 42 1017.1
20260831162937 94 170 5.0 10.0 0.00 0.00 0.00 42 1017.1
20260831162426 93 216 5.0 11.0 0.00 0.00 0.00 42 1017.0
20260831161933 93 205 6.0 12.0 0.00 0.00 0.00 41 1017.1
20260831161435 93 206 4.0 13.0 0.00 0.00 0.00 42 1017.1
20260831160941 93 239 9.0 13.0 0.00 0.00 0.00 42 1017.1
20260831160431 92 197 7.0 13.0 0.00 0.00 0.00 42 1017.1
20260831155933 93 224 7.0 13.0 0.00 0.00 0.00 42 1017.2
20260831155441 92 237 6.0 11.0 0.00 0.00 0.00 43 1017.2
20260831154949 92 218 6.0 10.0 0.00 0.00 0.00 42 1017.0
20260831154431 92 179 4.0 10.0 0.00 0.00 0.00 44 1017.1
20260831153932 91 158 7.0 13.0 0.00 0.00 0.00 44 1017.1
20260831153436 91 191 6.0 13.0 0.00 0.00 0.00 45 1017.0
20260831152926 90 193 7.0 12.0 0.00 0.00 0.00 46 1016.9
20260831152430 90 153 5.0 12.0 0.00 0.00 0.00 46 1016.9
20260831152005 90 229 8.0 13.0 0.00 0.00 0.00 45 1016.8
20260831151449 90 207 7.0 13.0 0.00 0.00 0.00 47 1016.9
20260831150932 90 229 4.0 11.0 0.00 0.00 0.00 50 1016.9
20260831150441 89 223 6.0 11.0 0.00 0.00 0.00 50 1016.9
20260831145925 89 215 5.0 11.0 0.00 0.00 0.00 51 1016.8
20260831145426 88 210 5.0 12.0 0.00 0.00 0.00 51 1016.8
20260831144935 88 210 4.0 12.0 0.00 0.00 0.00 52 1016.9
20260831144436 88 227 5.0 11.0 0.00 0.00 0.00 53 1016.9
20260831143945 87 242 4.0 11.0 0.00 0.00 0.00 54 1016.9
20260831143431 87 229 9.0 11.0 0.00 0.00 0.00 54 1017.0
20260831142936 87 227 5.0 11.0 0.00 0.00 0.00 55 1016.9
20260831142500 86 210 5.0 12.0 0.00 0.00 0.00 56 1016.8
20260831141944 86 206 7.0 13.0 0.00 0.00 0.00 55 1016.9
20260831141448 86 210 6.0 13.0 0.00 0.00 0.00 57 1016.9
20260831140954 85 184 5.0 12.0 0.00 0.00 0.00 57 1016.8
20260831140457 85 193 4.0 10.0 0.00 0.00 0.00 59 1016.9
20260831135947 85 204 4.0 10.0 0.00 0.00 0.00 60 1016.7
20260831135430 84 207 4.0 10.0 0.00 0.00 0.00 61 1016.6
20260831134930 84 230 7.0 10.0 0.00 0.00 0.00 62 1016.6
20260831134433 83 231 3.0 9.0 0.00 0.00 0.00 63 1016.4
20260831133937 83 229 4.0 10.0 0.00 0.00 0.00 64 1016.3
20260831133447 83 231 5.0 10.0 0.00 0.00 0.00 65 1016.3
20260831132931 82 216 4.0 7.0 0.00 0.00 0.00 65 1016.3
20260831132439 82 214 4.0 7.0 0.00 0.00 0.00 65 1016.3
20260831131943 82 220 5.0 7.0 0.00 0.00 0.00 66 1016.2
20260831131442 82 202 5.0 10.0 0.00 0.00 0.00 66 1016.0
20260831130927 82 210 4.0 10.0 0.00 0.00 0.00 66 1016.0
20260831130501 82 213 5.0 9.0 0.00 0.00 0.00 66 1016.0
20260831125946 81 153 6.0 9.0 0.00 0.00 0.00 66 1016.0
20260831125450 82 208 5.0 9.0 0.00 0.00 0.00 66 1015.8
20260831124955 82 183 4.0 9.0 0.00 0.00 0.00 66 1015.7
20260831124438 82 179 3.0 9.0 0.00 0.00 0.00 66 1015.6
20260831123949 82 193 2.0 7.0 0.00 0.00 0.00 66 1015.5
20260831123458 82 191 2.0 6.0 0.00 0.00 0.00 66 1015.4
20260831122926 81 193 3.0 6.0 0.00 0.00 0.00 66 1015.4
20260831122437 82 196 3.0 6.0 0.00 0.00 0.00 66 1015.3
20260831122001 82 193 3.0 10.0 0.00 0.00 0.00 65 1015.2
20260831121428 82 192 5.0 10.0 0.00 0.00 0.00 65 1015.1
20260831120946 82 198 3.0 9.0 0.00 0.00 0.00 65 1015.1
20260831120448 81 203 4.0 9.0 0.00 0.00 0.00 65 1015.0
20260831115936 82 204 4.0 9.0 0.00 0.00 0.00 65 1015.0
20260831115443 82 197 3.0 9.0 0.00 0.00 0.00 65 1015.0
20260831114933 82 206 3.0 9.0 0.00 0.00 0.00 65 1014.9
20260831114444 82 195 2.0 7.0 0.00 0.00 0.00 65 1014.9
20260831113935 82 202 3.0 6.0 0.00 0.00 0.00 65 1014.9
20260831113438 82 199 4.0 6.0 0.00 0.00 0.00 65 1014.8
20260831112944 82 202 3.0 6.0 0.00 0.00 0.00 65 1014.8
20260831112428 82 227 4.0 5.0 0.00 0.00 0.00 65 1014.9
20260831111938 82 227 3.0 5.0 0.00 0.00 0.00 64 1014.8
20260831111429 82 229 2.0 5.0 0.00 0.00 0.00 64 1014.6
20260831110929 82 229 3.0 5.0 0.00 0.00 0.00 64 1014.6
20260831110437 82 230 3.0 7.0 0.00 0.00 0.00 63 1014.5
20260831110006 82 231 4.0 7.0 0.00 0.00 0.00 63 1014.5
20260831105453 83 206 3.0 6.0 0.00 0.00 0.00 62 1014.4
20260831104937 83 206 2.0 6.0 0.00 0.00 0.00 62 1014.5
20260831104442 83 204 3.0 9.0 0.00 0.00 0.00 62 1014.5
20260831103930 83 206 5.0 9.0 0.00 0.00 0.00 61 1014.4
20260831103501 83 208 3.0 6.0 0.00 0.00 0.00 61 1014.6
20260831102939 83 209 3.0 6.0 0.00 0.00 0.00 61 1014.6
20260831102447 83 210 3.0 6.0 0.00 0.00 0.00 61 1014.5
20260831101953 83 210 3.0 6.0 0.00 0.00 0.00 61 1014.5
20260831101441 83 223 3.0 10.0 0.00 0.00 0.00 60 1014.5
20260831100930 84 212 4.0 11.0 0.00 0.00 0.00 60 1014.4
20260831100505 84 218 6.0 11.0 0.00 0.00 0.00 60 1014.4
20260831095930 84 193 4.0 11.0 0.00 0.00 0.00 60 1014.4
20260831095451 84 202 5.0 12.0 0.00 0.00 0.00 59 1014.4
20260831094959 84 211 5.0 12.0 0.00 0.00 0.00 59 1014.3
20260831094430 84 206 6.0 9.0 0.00 0.00 0.00 59 1014.3
20260831093940 84 217 4.0 9.0 0.00 0.00 0.00 58 1014.3
20260831093444 84 207 5.0 10.0 0.00 0.00 0.00 58 1014.3
20260831092927 85 211 4.0 10.0 0.00 0.00 0.00 58 1014.4
20260831092428 85 207 4.0 9.0 0.00 0.00 0.00 58 1014.4
20260831091935 85 206 4.0 11.0 0.00 0.00 0.00 57 1014.4
20260831091507 85 209 5.0 11.0 0.00 0.00 0.00 57 1014.3
20260831090928 85 212 5.0 13.0 0.00 0.00 0.00 57 1014.2
20260831090431 85 214 6.0 13.0 0.00 0.00 0.00 56 1014.2
20260831085957 85 177 6.0 12.0 0.00 0.00 0.00 56 1014.3
20260831085441 85 223 7.0 12.0 0.00 0.00 0.00 56 1014.3
20260831084926 85 192 6.0 11.0 0.00 0.00 0.00 56 1014.2
20260831084436 85 204 5.0 11.0 0.00 0.00 0.00 56 1014.2
20260831083942 85 207 6.0 12.0 0.00 0.00 0.00 56 1014.1
20260831083426 85 204 6.0 12.0 0.00 0.00 0.00 56 1014.1
20260831082934 85 205 4.0 9.0 0.00 0.00 0.00 56 1014.1
20260831082443 85 202 4.0 9.0 0.00 0.00 0.00 56 1014.2
20260831081929 85 202 4.0 7.0 0.00 0.00 0.00 55 1014.3
20260831081430 85 208 4.0 7.0 0.00 0.00 0.00 55 1014.3
20260831080936 85 215 2.0 9.0 0.00 0.00 0.00 54 1014.3
20260831080443 85 219 4.0 8.0 0.00 0.00 0.00 53 1014.3
20260831075931 86 208 4.0 10.0 0.00 0.00 0.00 52 1014.2
20260831075454 86 207 7.0 10.0 0.00 0.00 0.00 52 1014.1
20260831074936 85 194 5.0 9.0 0.00 0.00 0.00 52 1014.1
20260831074458 85 153 6.0 9.0 0.00 0.00 0.00 51 1014.1
20260831073943 86 203 5.0 10.0 0.00 0.00 0.00 51 1014.0
20260831073444 86 208 5.0 10.0 0.00 0.00 0.00 50 1014.0
20260831072948 86 194 4.0 10.0 0.00 0.00 0.00 49 1014.0
20260831072428 86 220 6.0 10.0 0.00 0.00 0.00 49 1014.0
20260831071935 86 200 5.0 11.0 0.00 0.00 0.00 48 1014.0
20260831071432 86 197 6.0 11.0 0.00 0.00 0.00 48 1014.0
20260831070940 87 193 5.0 9.0 0.00 0.00 0.00 47 1014.0
20260831070449 87 190 5.0 12.0 0.00 0.00 0.00 47 1014.1
20260831070109 87 178 7.0 12.0 0.00 0.00 0.00 47 1014.1
20260831065431 87 185 6.0 10.0 0.00 0.00 0.00 47 1014.0
20260831064950 87 183 6.0 11.0 0.00 0.00 0.00 46 1014.1
20260831064445 87 196 4.0 11.0 0.00 0.00 0.00 46 1014.0
20260831063948 87 148 6.0 11.0 0.00 0.00 0.00 46 1014.0
20260831063438 87 153 5.0 11.0 0.00 0.00 0.00 46 1014.1
20260831062942 87 189 5.0 9.0 0.00 0.00 0.00 46 1014.1
20260831062442 87 153 5.0 9.0 0.00 0.00 0.00 46 1014.1
20260831061929 88 187 5.0 9.0 0.00 0.00 0.00 46 1014.1
20260831061502 88 127 3.0 9.0 0.00 0.00 0.00 46 1014.1
20260831060928 88 148 5.0 10.0 0.00 0.00 0.00 45 1014.0
20260831060502 88 158 5.0 10.0 0.00 0.00 0.00 45 1014.0
20260831055945 88 153 5.0 7.0 0.00 0.00 0.00 45 1014.0
20260831055437 88 174 5.0 9.0 0.00 0.00 0.00 45 1014.0
20260831054944 89 168 4.0 10.0 0.00 0.00 0.00 45 1014.0
20260831054433 89 181 4.0 9.0 0.00 0.00 0.00 45 1014.0
20260831053936 89 181 5.0 9.0 0.00 0.00 0.00 45 1014.1
20260831053424 89 169 5.0 7.0 0.00 0.00 0.00 45 1014.2
20260831053003 89 168 4.0 9.0 0.00 0.00 0.00 45 1014.1
20260831052431 89 128 5.0 11.0 0.00 0.00 0.00 45 1013.9
20260831051939 89 158 3.0 11.0 0.00 0.00 0.00 45 1013.9
20260831051441 89 143 5.0 9.0 0.00 0.00 0.00 45 1013.9
20260831050925 89 199 5.0 9.0 0.00 0.00 0.00 45 1013.8
20260831050501 89 148 4.0 9.0 0.00 0.00 0.00 45 1013.7
20260831045931 89 193 4.0 9.0 0.00 0.00 0.00 45 1013.8
20260831045435 89 137 5.0 7.0 0.00 0.00 0.00 45 1013.8
20260831045002 90 143 4.0 7.0 0.00 0.00 0.00 45 1013.8
20260831044433 90 168 4.0 7.0 0.00 0.00 0.00 44 1013.8
20260831043937 90 131 5.0 7.0 0.00 0.00 0.00 44 1013.8
20260831043446 90 148 4.0 7.0 0.00 0.00 0.00 44 1013.9
20260831042928 90 148 3.0 6.0 0.00 0.00 0.00 44 1013.9
20260831042507 90 148 3.0 6.0 0.00 0.00 0.00 44 1013.8
20260831041939 90 148 4.0 6.0 0.00 0.00 0.00 44 1013.9
20260831041432 90 137 3.0 5.0 0.00 0.00 0.00 43 1013.8
20260831040937 90 137 4.0 5.0 0.00 0.00 0.00 43 1013.7
20260831040443 91 134 4.0 6.0 0.00 0.00 0.00 43 1013.7
20260831035948 91 129 4.0 7.0 0.00 0.00 0.00 42 1013.7
20260831035436 91 142 4.0 7.0 0.00 0.00 0.00 42 1013.7
20260831034929 92 136 4.0 6.0 0.00 0.00 0.00 41 1013.7
20260831034433 92 136 4.0 10.0 0.00 0.00 0.00 41 1013.6
20260831033925 92 110 6.0 10.0 0.00 0.00 0.00 41 1013.8
20260831033437 92 141 5.0 10.0 0.00 0.00 0.00 41 1013.7
20260831032938 92 140 4.0 6.0 0.00 0.00 0.00 41 1013.6
20260831032446 92 143 3.0 5.0 0.00 0.00 0.00 41 1013.6
20260831031950 92 137 4.0 5.0 0.00 0.00 0.00 41 1013.5
20260831031441 92 138 2.0 4.0 0.00 0.00 0.00 41 1013.5
20260831030942 92 136 2.0 4.0 0.00 0.00 0.00 41 1013.5
20260831030511 92 135 2.0 5.0 0.00 0.00 0.00 39 1013.5
20260831025956 92 133 3.0 5.0 0.00 0.00 0.00 39 1013.3
20260831025442 92 129 3.0 5.0 0.00 0.00 0.00 38 1013.3
20260831024947 92 124 3.0 6.0 0.00 0.00 0.00 38 1013.2
20260831024429 93 137 3.0 6.0 0.00 0.00 0.00 38 1013.3
20260831023936 93 136 4.0 6.0 0.00 0.00 0.00 37 1013.2
20260831023442 93 140 4.0 6.0 0.00 0.00 0.00 37 1013.1
20260831022939 93 133 3.0 6.0 0.00 0.00 0.00 36 1013.1
20260831022446 93 129 4.0 7.0 0.00 0.00 0.00 36 1013.0
20260831021955 93 131 4.0 7.0 0.00 0.00 0.00 36 1013.0
20260831021441 93 137 3.0 6.0 0.00 0.00 0.00 36 1012.9
20260831020924 93 137 3.0 6.0 0.00 0.00 0.00 36 1012.7
20260831020503 94 140 3.0 6.0 0.00 0.00 0.00 35 1012.6
20260831015941 94 140 3.0 4.0 0.00 0.00 0.00 35 1012.6
20260831015429 94 141 2.0 4.0 0.00 0.00 0.00 35 1012.5
20260831014937 94 141 1.0 4.0 0.00 0.00 0.00 35 1012.4
20260831014445 94 137 2.0 4.0 0.00 0.00 0.00 35 1012.4
20260831013935 94 137 2.0 5.0 0.00 0.00 0.00 35 1012.4
20260831013501 94 137 1.0 6.0 0.00 0.00 0.00 35 1012.3
20260831012928 94 133 4.0 6.0 0.00 0.00 0.00 34 1012.2
20260831012425 95 130 3.0 6.0 0.00 0.00 0.00 34 1012.2
20260831011938 95 141 3.0 6.0 0.00 0.00 0.00 34 1012.2
20260831011444 95 137 2.0 6.0 0.00 0.00 0.00 34 1012.2
20260831010935 95 135 3.0 7.0 0.00 0.00 0.00 33 1012.1
20260831010425 96 141 4.0 7.0 0.00 0.00 0.00 33 1012.1
20260831005936 96 130 4.0 9.0 0.00 0.00 0.00 33 1012.1
20260831005441 96 133 4.0 9.0 0.00 0.00 0.00 32 1012.0
20260831004931 96 119 5.0 9.0 0.00 0.00 0.00 32 1012.1
20260831004435 97 136 5.0 9.0 0.00 0.00 0.00 32 1012.0
20260831003947 97 148 5.0 9.0 0.00 0.00 0.00 31 1012.0
20260831003436 97 139 4.0 8.0 0.00 0.00 0.00 31 1012.0
20260831002943 97 112 5.0 9.0 0.00 0.00 0.00 31 1012.0
20260831002446 98 124 5.0 12.0 0.00 0.00 0.00 31 1011.9
20260831001952 98 137 5.0 12.0 0.00 0.00 0.00 30 1012.1
20260831001435 98 137 6.0 11.0 0.00 0.00 0.00 29 1012.0
20260831000933 98 135 6.0 11.0 0.00 0.00 0.00 30 1012.0
20260831000439 98 158 6.0 12.0 0.00 0.00 0.00 29 1012.1
20260830235926 99 121 6.0 13.0 0.00 0.00 0.00 29 1012.1
20260830235435 99 140 7.0 13.0 0.00 0.00 0.00 29 1012.1
20260830234941 99 171 7.0 11.0 0.00 0.00 0.00 28 1012.1
20260830234431 100 148 5.0 12.0 0.00 0.00 0.00 29 1012.2
20260830233940 100 144 7.0 12.0 0.00 0.00 0.00 28 1012.1
20260830233427 100 108 5.0 11.0 0.00 0.00 0.00 28 1012.1
20260830232928 100 108 5.0 11.0 0.00 0.00 0.00 28 1012.2
20260830232436 100 158 5.0 11.0 0.00 0.00 0.00 27 1012.2
20260830231940 100 119 6.0 13.0 0.00 0.00 0.00 27 1012.2
20260830231427 100 195 8.0 13.0 0.00 0.00 0.00 27 1012.1
20260830231002 100 207 5.0 14.0 0.00 0.00 0.00 27 1012.1
20260830230427 100 139 10.0 14.0 0.00 0.00 0.00 27 1012.2
20260830225930 100 218 5.0 12.0 0.00 0.00 0.00 27 1012.2
20260830225433 101 123 5.0 12.0 0.00 0.00 0.00 27 1012.2
20260830224943 101 200 7.0 13.0 0.00 0.00 0.00 27 1012.3
20260830224429 101 139 9.0 13.0 0.00 0.00 0.00 27 1012.4
20260830223933 101 195 3.0 15.0 0.00 0.00 0.00 27 1012.3
20260830223443 101 133 7.0 15.0 0.00 0.00 0.00 28 1012.4
20260830222927 101 148 9.0 13.0 0.00 0.00 0.00 27 1012.4
20260830222433 101 121 5.0 14.0 0.00 0.00 0.00 29 1012.4
20260830221933 101 133 5.0 11.0 0.00 0.00 0.00 28 1012.3
20260830221441 101 204 6.0 11.0 0.00 0.00 0.00 27 1012.3
20260830220925 102 129 7.0 11.0 0.00 0.00 0.00 26 1012.4
20260830220435 102 158 5.0 11.0 0.00 0.00 0.00 27 1012.4
20260830215947 101 140 5.0 11.0 0.00 0.00 0.00 27 1012.3
20260830215437 101 204 5.0 11.0 0.00 0.00 0.00 27 1012.3
20260830214945 101 181 4.0 14.0 0.00 0.00 0.00 27 1012.4
20260830214426 102 118 8.0 12.0 0.00 0.00 0.00 27 1012.5
20260830213936 102 127 5.0 14.0 0.00 0.00 0.00 27 1012.4
20260830213442 102 116 4.0 14.0 0.00 0.00 0.00 28 1012.5
20260830212946 102 105 9.0 14.0 0.00 0.00 0.00 28 1012.5
20260830212433 102 126 6.0 13.0 0.00 0.00 0.00 28 1012.5
20260830211943 101 148 7.0 13.0 0.00 0.00 0.00 29 1012.5
20260830211450 101 106 7.0 12.0 0.00 0.00 0.00 28 1012.6
20260830210951 101 115 7.0 12.0 0.00 0.00 0.00 28 1012.8
20260830210451 101 117 8.0 13.0 0.00 0.00 0.00 26 1012.8
20260830205956 101 162 6.0 14.0 0.00 0.00 0.00 29 1012.9
20260830205502 100 210 9.0 14.0 0.00 0.00 0.00 29 1012.9
20260830204928 101 209 5.0 15.0 0.00 0.00 0.00 29 1013.0
20260830204437 101 195 3.0 15.0 0.00 0.00 0.00 30 1013.1
20260830203941 101 208 9.0 14.0 0.00 0.00 0.00 29 1013.2
20260830203427 100 158 6.0 13.0 0.00 0.00 0.00 30 1013.3
20260830202935 101 195 8.0 14.0 0.00 0.00 0.00 29 1013.3
20260830202508 101 144 3.0 14.0 0.00 0.00 0.00 29 1013.3
20260830201932 101 158 4.0 11.0 0.00 0.00 0.00 29 1013.4
20260830201505 101 223 6.0 11.0 0.00 0.00 0.00 30 1013.5
20260830200942 101 181 8.0 14.0 0.00 0.00 0.00 29 1013.6
20260830200432 101 220 6.0 14.0 0.00 0.00 0.00 29 1013.6
20260830195938 101 180 8.0 13.0 0.00 0.00 0.00 30 1013.6
20260830195444 101 212 4.0 12.0 0.00 0.00 0.00 31 1013.7
20260830194930 101 176 7.0 15.0 0.00 0.00 0.00 30 1013.8
20260830194438 101 103 11.0 15.0 0.00 0.00 0.00 29 1013.7
20260830193944 102 200 7.0 16.0 0.00 0.00 0.00 30 1013.8
20260830193449 101 122 9.0 16.0 0.00 0.00 0.00 30 1013.9
20260830192932 101 107 4.0 13.0 0.00 0.00 0.00 31 1014.0
20260830192441 100 183 7.0 13.0 0.00 0.00 0.00 31 1014.0
20260830191931 100 117 6.0 14.0 0.00 0.00 0.00 31 1014.1
20260830191436 100 143 7.0 14.0 0.00 0.00 0.00 30 1014.1
20260830190941 100 142 7.0 13.0 0.00 0.00 0.00 31 1014.1
20260830190442 100 93 9.0 13.0 0.00 0.00 0.00 32 1014.3
20260830185927 100 140 7.0 14.0 0.00 0.00 0.00 32 1014.4
20260830185435 100 109 8.0 15.0 0.00 0.00 0.00 32 1014.4
20260830184941 100 158 10.0 15.0 0.00 0.00 0.00 31 1014.4
20260830184428 100 165 10.0 15.0 0.00 0.00 0.00 32 1014.5
20260830183932 100 126 5.0 17.0 0.00 0.00 0.00 34 1014.5
20260830183438 100 153 7.0 17.0 0.00 0.00 0.00 33 1014.6
20260830182928 99 192 7.0 14.0 0.00 0.00 0.00 35 1014.6
20260830182440 99 193 9.0 14.0 0.00 0.00 0.00 34 1014.9